SCP
0 0 0 0 0 0 0 0 0 0 0 0 0 0 0 0 0 0 -0 -0 -0 -0 -0 0 0 0 0 0 0 0 0 0
0 0 0 0 0 0 0 0 0 0 0 0 0 0 0 0 0 0 -0 -0 -0 -0 0 0 0 0 0 0 0 0 0 0
0 0 0 0 0 0 0 0 0 0 0 0 0 0 0 0 0 0 0 -0 -0 -0 0 0 0 0 0 0 0 0 0 0
0 0 0 0 0 0 0 0 0 0 0 0 0 0 0 0 0 0 0 -0 -0 -0 0 0 0 0 0 0 0 0 0 0
0 0 0 0 0 0 0 0 0 0 0 0 0 0 0 0 0 0 0 0 0 0 0 0 0 0 -0 0 -0 -0 0 0
0 0 0 0 0 0 0 0 0 0 0 0 0 0 0 0 0 0 0 0 0 0 0 0 0 0 -0 -0 -0 -0 0 0
0 0 0 0 0 0 0 0 0 0 0 0 0 0 0 0 0 0 0 0 0 0 0 0 0 0 0 0 -0 -0 0 0
0 0 0 0 0 0 0 0 0 0 0 0 0 0 0 0 0 0 0 0 0 0 0 0 0 0 0 0 -0 -0 0 0
0 0 0 0 0 0 0 0 0 0 0 0 0 0 0 0 0 0 0 0 0 0 0 0 0 0 0 0 -0 -0 0 0
0 0 0 0 0 0 0 0 0 0 0 0 0 0 0 0 0 0 0 0 0 0 0 0 0 0 0 0 -0 -0 -0 0
0 0 0 0 0 0 0 0 0 0 0 0 0 0 0 0 0 0 0 0 0 0 0 0 0 0 0 0 0 -0 -0 0
0 0 0 0 0 0 0 0 0 0 0 0 0 0 0 0 0 0 0 0 0 0 0 0 0 0 0 0 0 -0 -0 -0
0 0 0 0 0 0 0 0 0 0 0 0 0 0 0 0 0 0 0 0 0 0 0 -0 0 0 0 0 0 0 -0 -0
0 0 0 0 0 0 0 0 0 0 0 0 0 0 0 0 0 0 0 0 0 0 0 0 -0 -0 0 0 0 0 0 -0
0 0 0 0 0 0 0 0 0 0 0 0 0 0 0 0 0 0 0 0 0 0 0 0 -0 -0 0 0 0 0 0 -0
0 0 0 0 0 0 0 0 0 0 0 0 0 0 0 0 0 0 0 0 0 0 0 0 0 -0 0 0 0 0 0 0
0 0 0 0 0 0 0 0 0 0 0 0 0 0 0 0 0 0 0 0 0 0 0 0 0 0 0 0 0 0 0 0
0 0 0 0 0 0 0 0 0 0 0 0 0 0 0 0 0 0 0 0 0 0 0 0 0 0 0 0 0 0 0 -0
0 0 0 0 0 0 0 0 0 0 0 0 0 0 0 0 0 0 0 0 0 0 0 0 0 0 0 0 0 0 -0 -0
0 0 0 0 0 0 0 0 0 0 0 0 0 0 0 0 0 0 0 0 0 0 0 0 0 0 0 0 0 0 -0 -0
Wind_Speed_500mb
65 58 53 51 46 39 35 28 24 19 17 14 14 14 13 16 21 24 29 33 35 34 35 38 41 44 47 50 52 51 52 53
63 59 55 54 52 46 38 32 27 24 20 17 16 15 13 14 19 21 26 31 32 32 33 37 41 45 48 52 54 53 53 53
65 63 62 61 58 50 43 37 30 24 22 21 18 15 13 13 16 20 24 29 31 31 32 36 40 46 49 53 54 54 54 54
70 73 71 70 66 59 51 45 38 32 27 23 22 19 15 12 15 19 23 27 29 29 31 34 39 45 48 50 53 53 53 54
68 76 76 75 72 65 57 52 46 39 33 28 25 24 20 16 16 18 23 25 27 28 31 33 36 43 44 47 49 49 50 52
63 77 79 79 76 71 65 59 52 46 40 34 31 28 25 20 19 20 23 24 26 27 29 30 32 40 40 42 45 45 46 48
60 70 80 85 84 79 73 65 59 54 48 42 39 35 31 26 24 23 24 25 25 25 26 25 30 35 36 38 40 41 42 46
65 69 78 86 88 88 82 72 66 59 55 48 45 42 37 32 30 27 26 26 25 24 24 23 26 30 32 33 36 38 39 41
56 65 74 78 89 90 85 79 72 68 64 57 52 48 44 39 35 33 30 28 26 24 23 21 22 24 28 28 31 34 35 37
36 51 64 73 81 89 91 87 80 77 70 63 57 55 51 46 41 37 34 31 28 25 22 21 19 20 24 24 26 29 30 33
30 39 55 63 68 83 94 95 90 85 76 66 61 59 56 50 46 41 37 33 30 26 23 21 18 18 20 19 22 24 26 29
32 38 46 54 59 73 87 101 96 87 78 70 66 62 59 54 51 47 43 39 34 29 25 22 20 17 20 16 18 20 23 26
32 30 40 51 60 75 83 89 100 92 79 75 71 68 66 62 57 54 50 44 38 33 28 25 21 18 18 15 14 17 20 22
33 29 30 45 52 63 72 85 99 95 87 83 78 74 72 70 65 61 56 49 43 38 32 27 24 20 17 16 12 13 17 19
34 30 32 34 48 54 58 71 92 100 96 92 85 81 78 75 71 67 63 57 50 44 37 32 29 25 20 17 14 11 15 17
44 35 32 32 38 50 61 66 79 100 100 98 92 86 84 83 79 74 63 54 47 42 36 33 30 25 23 20 17 13 12 16
51 45 35 36 38 47 58 63 71 93 106 104 98 92 89 88 83 77 66 59 53 46 40 35 33 32 28 26 22 19 16 16
50 41 37 40 41 44 53 60 67 79 104 107 103 99 97 93 91 86 79 71 63 57 53 48 42 37 35 32 29 28 24 19
53 47 39 33 47 46 49 59 65 74 89 107 108 104 100 96 95 91 87 84 80 73 64 57 50 46 42 41 40 37 31 26
50 45 43 44 43 47 49 55 63 71 83 99 110 109 103 99 98 96 91 88 83 76 71 65 58 53 50 51 44 37 35 31
Wind_Direction_500mb
204 205 205 202 202 202 201 199 193 187 178 169 155 143 117 91 77 71 66 64 59 54 51 50 49 48 49 50 51 46 44 41
207 208 208 204 203 204 206 205 201 193 186 180 168 155 127 101 88 81 75 71 65 61 57 57 56 55 54 54 53 48 46 45
210 210 208 207 206 205 205 209 208 207 199 185 176 164 143 122 105 94 85 79 74 69 63 62 63 62 60 57 54 50 46 46
211 210 210 208 208 207 205 206 207 205 205 198 184 173 163 144 121 109 97 88 83 78 72 68 68 67 64 60 56 51 47 46
217 214 213 212 210 208 206 206 206 204 204 202 196 182 175 165 141 127 112 102 96 89 81 74 71 71 66 63 60 55 50 47
225 219 216 214 212 211 209 207 206 203 204 201 201 193 185 176 157 144 127 116 105 96 88 81 77 73 69 66 63 60 55 52
234 228 222 219 215 212 211 208 207 205 205 201 199 199 192 183 169 157 143 128 118 109 99 92 82 78 72 67 66 63 59 55
245 239 231 225 221 217 213 209 209 207 205 204 201 198 196 189 178 168 157 142 132 123 112 102 92 86 77 69 67 63 61 60
263 248 239 232 227 221 215 212 210 208 208 205 202 199 197 194 186 177 167 156 144 137 126 115 102 95 84 73 69 66 62 61
285 265 248 236 230 224 216 213 212 211 210 208 205 202 199 197 191 184 176 167 157 149 138 130 114 106 91 79 74 72 67 64
288 262 249 241 232 227 218 215 214 214 213 210 207 205 202 199 195 189 183 177 169 161 151 141 130 114 99 87 81 77 73 70
298 266 255 241 231 231 222 220 220 216 212 212 210 208 204 201 198 195 190 185 180 173 166 155 145 123 108 98 89 86 82 77
313 287 258 244 237 230 226 223 220 217 212 215 211 208 205 203 201 198 197 192 188 183 178 170 157 142 122 114 100 95 90 83
314 288 273 254 244 239 235 226 219 214 216 217 212 210 207 205 204 202 200 198 195 191 185 181 172 159 146 134 125 110 103 94
313 299 285 274 253 242 236 231 223 216 216 216 212 210 208 207 208 209 206 202 200 198 193 191 187 175 170 156 145 138 123 112
322 299 302 287 265 244 236 232 229 221 218 216 214 212 210 210 211 211 211 212 208 204 201 201 197 186 186 182 165 164 153 136
330 308 300 292 271 249 244 238 229 222 218 217 215 213 212 212 211 212 213 214 212 211 210 206 201 201 200 195 183 184 189 167
313 309 291 291 276 265 250 241 234 228 222 220 218 216 214 213 213 212 210 211 213 214 212 210 209 206 204 204 200 197 200 192
308 294 280 275 285 271 258 244 237 232 227 224 222 220 219 217 217 215 214 212 212 211 213 214 213 210 209 212 209 205 202 205
302 304 289 268 270 273 260 248 239 233 230 226 225 224 223 221 220 219 217 217 219 216 216 215 215 216 213 220 215 210 209 207
Wind_Speed_850mb
65 58 53 51 46 39 35 28 24 19 17 14 14 14 13 16 21 24 29 33 35 34 35 38 41 44 47 50 52 51 52 53
63 59 55 54 52 46 38 32 27 24 20 17 16 15 13 14 19 21 26 31 32 32 33 37 41 45 48 52 54 53 53 53
65 63 62 61 58 50 43 37 30 24 22 21 18 15 13 13 16 20 24 29 31 31 32 36 40 46 49 53 54 54 54 54
70 73 71 70 66 59 51 45 38 32 27 23 22 19 15 12 15 19 23 27 29 29 31 34 39 45 48 50 53 53 53 54
68 76 76 75 72 65 57 52 46 39 33 28 25 24 20 16 16 18 23 25 27 28 31 33 36 43 44 47 49 49 50 52
63 77 79 79 76 71 65 59 52 46 40 34 31 28 25 20 19 20 23 24 26 27 29 30 32 40 40 42 45 45 46 48
60 70 80 85 84 79 73 65 59 54 48 42 39 35 31 26 24 23 24 25 25 25 26 25 30 35 36 38 40 41 42 46
65 69 78 86 88 88 82 72 66 59 55 48 45 42 37 32 30 27 26 26 25 24 24 23 26 30 32 33 36 38 39 41
56 65 74 78 89 90 85 79 72 68 64 57 52 48 44 39 35 33 30 28 26 24 23 21 22 24 28 28 31 34 35 37
36 51 64 73 81 89 91 87 80 77 70 63 57 55 51 46 41 37 34 31 28 25 22 21 19 20 24 24 26 29 30 33
30 39 55 63 68 83 94 95 90 85 76 66 61 59 56 50 46 41 37 33 30 26 23 21 18 18 20 19 22 24 26 29
32 38 46 54 59 73 87 101 96 87 78 70 66 62 59 54 51 47 43 39 34 29 25 22 20 17 20 16 18 20 23 26
32 30 40 51 60 75 83 89 100 92 79 75 71 68 66 62 57 54 50 44 38 33 28 25 21 18 18 15 14 17 20 22
33 29 30 45 52 63 72 85 99 95 87 83 78 74 72 70 65 61 56 49 43 38 32 27 24 20 17 16 12 13 17 19
34 30 32 34 48 54 58 71 92 100 96 92 85 81 78 75 71 67 63 57 50 44 37 32 29 25 20 17 14 11 15 17
44 35 32 32 38 50 61 66 79 100 100 98 92 86 84 83 79 74 63 54 47 42 36 33 30 25 23 20 17 13 12 16
51 45 35 36 38 47 58 63 71 93 106 104 98 92 89 88 83 77 66 59 53 46 40 35 33 32 28 26 22 19 16 16
50 41 37 40 41 44 53 60 67 79 104 107 103 99 97 93 91 86 79 71 63 57 53 48 42 37 35 32 29 28 24 19
53 47 39 33 47 46 49 59 65 74 89 107 108 104 100 96 95 91 87 84 80 73 64 57 50 46 42 41 40 37 31 26
50 45 43 44 43 47 49 55 63 71 83 99 110 109 103 99 98 96 91 88 83 76 71 65 58 53 50 51 44 37 35 31
Wind_Direction_850mb
204 205 205 202 202 202 201 199 193 187 178 169 155 143 117 91 77 71 66 64 59 54 51 50 49 48 49 50 51 46 44 41
207 208 208 204 203 204 206 205 201 193 186 180 168 155 127 101 88 81 75 71 65 61 57 57 56 55 54 54 53 48 46 45
210 210 208 207 206 205 205 209 208 207 199 185 176 164 143 122 105 94 85 79 74 69 63 62 63 62 60 57 54 50 46 46
211 210 210 208 208 207 205 206 207 205 205 198 184 173 163 144 121 109 97 88 83 78 72 68 68 67 64 60 56 51 47 46
217 214 213 212 210 208 206 206 206 204 204 202 196 182 175 165 141 127 112 102 96 89 81 74 71 71 66 63 60 55 50 47
225 219 216 214 212 211 209 207 206 203 204 201 201 193 185 176 157 144 127 116 105 96 88 81 77 73 69 66 63 60 55 52
234 228 222 219 215 212 211 208 207 205 205 201 199 199 192 183 169 157 143 128 118 109 99 92 82 78 72 67 66 63 59 55
245 239 231 225 221 217 213 209 209 207 205 204 201 198 196 189 178 168 157 142 132 123 112 102 92 86 77 69 67 63 61 60
263 248 239 232 227 221 215 212 210 208 208 205 202 199 197 194 186 177 167 156 144 137 126 115 102 95 84 73 69 66 62 61
285 265 248 236 230 224 216 213 212 211 210 208 205 202 199 197 191 184 176 167 157 149 138 130 114 106 91 79 74 72 67 64
288 262 249 241 232 227 218 215 214 214 213 210 207 205 202 199 195 189 183 177 169 161 151 141 130 114 99 87 81 77 73 70
298 266 255 241 231 231 222 220 220 216 212 212 210 208 204 201 198 195 190 185 180 173 166 155 145 123 108 98 89 86 82 77
313 287 258 244 237 230 226 223 220 217 212 215 211 208 205 203 201 198 197 192 188 183 178 170 157 142 122 114 100 95 90 83
314 288 273 254 244 239 235 226 219 214 216 217 212 210 207 205 204 202 200 198 195 191 185 181 172 159 146 134 125 110 103 94
313 299 285 274 253 242 236 231 223 216 216 216 212 210 208 207 208 209 206 202 200 198 193 191 187 175 170 156 145 138 123 112
322 299 302 287 265 244 236 232 229 221 218 216 214 212 210 210 211 211 211 212 208 204 201 201 197 186 186 182 165 164 153 136
330 308 300 292 271 249 244 238 229 222 218 217 215 213 212 212 211 212 213 214 212 211 210 206 201 201 200 195 183 184 189 167
313 309 291 291 276 265 250 241 234 228 222 220 218 216 214 213 213 212 210 211 213 214 212 210 209 206 204 204 200 197 200 192
308 294 280 275 285 271 258 244 237 232 227 224 222 220 219 217 217 215 214 212 212 211 213 214 213 210 209 212 209 205 202 205
302 304 289 268 270 273 260 248 239 233 230 226 225 224 223 221 220 219 217 217 219 216 216 215 215 216 213 220 215 210 209 207